Meteo Giornale » Osservazioni meteo Paraguay » Asuncion
ore: 15:00 - Osservazioni Meteo Asuncion
Lat. 25° 16' S Lon. 57° 38' W Alt. 101 metri s.l.m.
21 °C
Coperto
Temp. 24 Ore
19 °C
24 °C
Ovest/Sud-Ovest
18.5 Km/h
Dew point 16 °C
Umidità 73 %
Visibilità 10 Km
Il sole sorge alle ore 07:02
Il sole tramonta alle ore 18:38
| Data e Ora | Cielo e Fenomeni | T °C | DP °C | Um. % | Pres. hPa | Vis. km | Vento km/h | |
|---|---|---|---|---|---|---|---|---|
| Oggi h: 15:00 | Coperto | 21 | 16 | 73 | 1017 | 10 | O/SO 18.5 | |
| Oggi h: 14:00 | Coperto | 21 | 16 | 73 | 1017 | 10 | SO 25.9 | |
| Oggi h: 13:00 | Molto Nuvoloso | 21 | 17 | 77 | 1017 | 10 | O/SO 27.8 | |
| Oggi h: 12:00 | Molto Nuvoloso | 22 | 17 | 73 | 1017 | 10 | SO 27.8 | |
| Oggi h: 11:00 | Molto Nuvoloso | 20 | 16 | 77 | 1017 | 10 | SO 27.8 | |
| Oggi h: 10:30 | Coperto | 20 | 17 | 82 | 1017 | 10 | S/SO 27.8 | |
| Oggi h: 10:00 | Coperto | 19 | 16 | 82 | 1016 | 10 | SO 25.9 | |
| Oggi h: 09:30 | Coperto | 19 | 16 | 82 | 1016 | 10 | S/SO 22.2 | |
| Oggi h: 09:00 | Coperto | 19 | 16 | 82 | 1016 | 10 | SO 20.3 | |
| Oggi h: 08:30 | Molto Nuvoloso | 19 | 16 | 82 | 1015 | 10 | S/SO 20.3 | |
| Oggi h: 08:00 | Molto Nuvoloso | 19 | 16 | 82 | 1015 | 10 | S/SO 27.8 | |
| Oggi h: 07:00 | Molto Nuvoloso | 19 | 16 | 82 | 1013 | 10 | S/SO 22.2 | |
| Oggi h: 06:00 | Molto Nuvoloso | 19 | 16 | 82 | 1013 | 10 | S/SO 18.5 | |
| Oggi h: 05:00 | Coperto | 19 | 17 | 88 | 1012 | 10 | S/SO 18.5 | |
| Oggi h: 04:00 | Molto Nuvoloso | 19 | 17 | 88 | 1011 | 10 | S/SO 22.2 | |
| Oggi h: 03:00 | Coperto | 19 | 17 | 88 | 1011 | 10 | S/SO 22.2 | |
| Oggi h: 02:00 | Coperto | 19 | 17 | 88 | 1011 | 10 | S/SO 22.2 | |
| Oggi h: 01:00 | Poco Nuvoloso | 19 | 17 | 88 | 1013 | 10 | SO 14.8 | |
| Oggi h: 00:00 | Molto Nuvoloso | 19 | 17 | 88 | 1013 | 10 | SO 14.8 | |
| Ieri h: 23:00 | Sereno | 19 | 17 | 88 | 1012 | 10 | SO 18.5 | |
| Ieri h: 22:00 | Sereno | 19 | 17 | 88 | 1011 | 10 | S/SO 22.2 | |
| Ieri h: 21:00 | Nuvoloso | 20 | 17 | 82 | 1010 | 10 | S 22.2 | |
| Ieri h: 20:00 | Molto Nuvoloso | 21 | 18 | 82 | 1009 | 10 | S/SO 27.8 | |
| Ieri h: 19:00 | Molto Nuvoloso | 22 | 19 | 83 | 1009 | 10 | S/SO 25.9 | |
| Ieri h: 18:00 | Molto Nuvoloso | 23 | 19 | 78 | 1008 | 10 | S/SO 27.8 | |
| Ieri h: 17:00 | Molto Nuvoloso | 24 | 20 | 78 | 1006 | 10 | S/SO 22.2 | |
| Ieri h: 16:00 | Molto Nuvoloso | 23 | 20 | 83 | 1006 | 10 | S/SO 25.9 | |



